Volver al catálogo

STARLINK-35334

ActivoComunicacionesVLEO
NORAD 66450·PAYLOAD·🇺🇸 United States

Lanzado Nov 11, 2025 desde Cape Canaveral Space Force Station

Loading…

Próximos Pases (próximas 24 horas)

TLE

ActualizadoSource: CelesTrak SupGP

Época: Sep 15, 2026, 03:50 UTC

1 66450C 25259AE  26258.16020833 -.00009413  00000+0 -34087-3 0  2581
2 66450  43.0010 284.5508 0001540 269.0757 161.5573 15.27589150    11

Sigue STARLINK-35334 en tiempo real con AllMySat

Download on the App Store